Find Starlink 11294

NORAD ID: 61054 Int'l Des: 2024-164 Owner: SPXS Country: US Constellation: starlink operational
LEOCIRCULAR

リアルタイム位置

3D地球を読み込み中...

Starlink 11294について

説明を読み込み中...

次回通過

Passes for default location (London). Set your location on the main map for personalized predictions.

高度履歴

Loading altitude history...

軌道要素

1 61054U 24164E 26127.97800788 -.00000393 00000-0 16102-5 0 9999
2 61054 53.1594 18.7895 0000614 63.5097 296.5984 15.69705967 94735
Epoch: May 7, 2026 • Age: 5 hours

現在のステータス

高度 364.5 km
速度 7.70 km/s
衛星直下点 46.76°N, 148.83°W
打ち上げ日 Sep 13, 2024
運用期間 1.6 years
タイプ internet

技術仕様

分類 Payload
質量 960.00 kg
乾燥質量 910.00 kg
総質量 960.00 kg
長さ 0.30 m
直径 4.10 m
スパン 29.00 m
形状 Box + pan
製造者 SPXS
バスタイプ Starlink V2MD
フェーズステータス In Orbit
所有者/国 SPXS/US

Most Searched